Terug naar catalogus

CZ-3 DEB

LostHEO
NORAD 29448·DEBRIS·🇨🇳 China

Gelanceerd Feb 1, 1986 vanaf Xichang Satellite Launch Center

Loading…

Volgende Passages (komende 24 uur)

TLE

VerouderdSource: Space-Track

Epoch: Jan 29, 2022, 20:23 UTC

1 29448U 86010G   22029.84955553  .00001343  00000-0  35876-2 0  9993
2 29448  30.3075 220.8731 7124687 225.9800  47.1857  2.38922030161516

Volg CZ-3 DEB in realtime met AllMySat

Download on the App Store